CZ-6A DEB, 61094

Orbit data source: Space-Track

CZ-6A DEB, 61094 is space debris in LEO originally from a launch on Tue, 06 Aug 2024 UTC launched from the Taiyaun Space Center, China (TSC). Debris objects in space refer to the collection of defunct objects orbiting the Earth. Examples of debris include non-operational satellites, rocket bodies, and fragments generated from explosions, collisions, or faulty payload assembly.

Loading next visibility...
Identifier
61094, 2024-140NL
Orbit
LEO
Country
Flag of CNCN / PRC
Related business
Manufacturer
SAST
Mission
Spacecraft
Bus & Motor
Unknown
Mass
Unknown
Launch date (UTC)
2024-08-06 (2 years ago)
Launch vehicle
Unknown
Launch site
Taiyaun Space Center, China (TSC)
Object type
Payload
Rocket body
Debris
Shape & HBR
Unknown shape, 0.2 m
Radar Cross Section
Small (<0.1 m²)

Expand to show TLE details & history
Last TLE update: 12 hours ago

TLE from 12 hours ago
0 CZ-6A DEB
1 61094U 24140NL  26118.44683576  .00000309  00000-0  14447-3 0  9997
2 61094  89.0058 281.4089 0055386 349.1621  10.8369 14.17094908 86089
Epoch: 2026-04-28T10:43Z
TLE epoch observation values (Epoch: 2026-04-28T10:43:26.609Z)
Latitude
-0.00006°
Longitude
-95.874°
Altitude
799.004 km
Speed
7.474 km/s
True Right ascension
18h 45m 38s
True Declination
0° 00' 00"
Sunlit
Object was in daylight at epoch
Visualization orbit readout
Latitude
Unknown
Longitude
Unknown
Altitude
Unknown
Speed
Unknown
Apparent Right ascension
Unknown
Apparent Declination
Unknown
Sunlit
N/A
Visualization observer readout
Local Sidereal Time
06:29:17
Azimuth
Unknown
Elevation
Unknown
Doppler factor
Unknown
Orbital elements
Apogee altitude
872.084 km
Perigee altitude
792.215 km
Semi-major axis
7,210.287 km
Eccentricity
0.00554
Inclination
89.0058°
RAAN
281.4089°
Arg. of periapsis
349.1621°
True anomaly
10.95704°
Mean anomaly
10.8369°
Eccentric anomaly
10.89689°
Mean motion
3.54498 °/min
Orbital period
101.55 mins
BSTAR
0.00014447
Loading maneuver chart data...
Computing Atmospheric mass density...
Loading historical data...
Loading historical data...
Loading historical data...
Loading historical data...
Loading historical data...
Loading historical data...
Loading historical data...

Documentation

Showing up to 5 results
|